Regional Weather Roundup
Issued by NWS

Home | Current Version | Previous Version | Graphics & Text | Print | Product List | Glossary On
Versions: 1 2 3 4 5 6 7 8 9 10 11 12 13 14 15 16 17 18 19 20 21 22 23 24 25 26 27 28 29 30 31 32 33 34 35 36 37 38 39 40 41 42 43 44 45 46 47 48 49 50
000
ASUS45 KBOU 201207
RWRCO

WEATHER ROUNDUP FOR COLORADO
NATIONAL WEATHER SERVICE DENVER/BOULDER CO
600 AM MDT THU JUL 20 2017

NOTE: "FAIR" INDICATES FEW OR NO CLOUDS BELOW 12000 FEET WITH NO
SIGNIFICANT WEATHER AND/OR OBSTRUCTIONS TO VISIBILITY.

COZ001>005-013-030-031-201300-
...NORTHWEST COLORADO...

CITY           SKY/WX    TMP DP  RH WIND       PRES   REMARKS
CRAIG          FAIR      54  50  86 CALM      30.28R
HAYDEN         FAIR      55  46  71 SE5       30.30R
MEEKER         FAIR      57  55  93 S3        30.28F
RABBIT EARS PA FAIR      52  43  71 S5        30.59S
STEAMBOAT SPGS FAIR      56  51  82 CALM      30.34R
WALDEN         FAIR      54  46  76 SE5       30.44R
$$

COZ006>008-011-201300-
...WEST CENTRAL VALLEYS...

CITY           SKY/WX    TMP DP  RH WIND       PRES   REMARKS
GRAND JUNCTION FAIR      67  60  78 CALM      30.19R
MONTROSE       FAIR      61  57  87 SE7       30.27R
EAGLE          FAIR      58  56  93 E6        30.37S
RIFLE          FAIR      66  57  72 S3        30.24S
DELTA          FAIR      68  57  68 E3        30.25R
NUCLA          FAIR      63  52  67 E9        30.32S
$$

COZ017>023-064>068-201300-
...SOUTHWEST COLORADO...

CITY           SKY/WX    TMP DP  RH WIND       PRES   REMARKS
DURANGO        FAIR      62  47  57 N6        30.34R
CORTEZ         FAIR      59  55  87 NE9       30.28S
PAGOSA SPRINGS FAIR      56  51  84 CALM      30.43S
TELLURIDE      FAIR      56  46  69 CALM      30.53R
WOLF CREEK PAS FAIR      46  43  87 S13       30.77S
$$

COZ009-010-012-014-032>034-037-058>063-201300-
...CENTRAL COLORADO...

CITY           SKY/WX    TMP DP  RH WIND       PRES   REMARKS
ASPEN          FAIR      57  49  74 SE8       30.40F
BUENA VISTA    FAIR      52  47  82 CALM      30.47R
COPPER MTN     FAIR      54  39  58 SW7       30.73F
BERTHOUD PASS  FAIR      45  32  61 W18       30.75F
COTTONWOOD PAS FAIR      59  43  55 SE5       30.59R
GUNNISON       FAIR      54  48  80 N14G21    30.45R
KREMMLING      FAIR      59  54  82 CALM      30.42R
LEADVILLE      FAIR      44  41  89 SE7       30.57S
MONARCH PASS   FAIR      50  41  71 CALM      30.84R
SALIDA         FAIR      54  47  77 W7        30.51R
SUNLIGHT       FAIR      50  41  71 SE8       30.64S
WILKERSON PASS FAIR      52  37  58 CALM      30.71S
$$

COZ069>075-201300-
...SAN LUIS VALLEY/SANGRE DE CRISTO MOUNTAINS...

CITY           SKY/WX    TMP DP  RH WIND       PRES   REMARKS
ALAMOSA        FAIR      54  49  83 E7        30.41R
DEL NORTE      FAIR      58  47  66 CALM      30.46S
LA VETA PASS   NOT AVBL
SAGUACHE         N/A    N/A N/A N/A MISG        N/A
$$

COZ035-036-038>040-201300-
...NORTHERN COLORADO FRONT RANGE...

CITY           SKY/WX    TMP DP  RH WIND       PRES   REMARKS
DENVER INTL AP FAIR      65  55  70 SW7       30.25R
DMNS CITY PARK   N/A     65  56  72 E9        30.25S
AURORA         MOCLDY    65  56  71 CALM      30.27S
FRONT RANGE AP FAIR      63  55  77 W6        30.27R
ERIE MUNI ARPT FAIR      62  53  72 CALM      30.23S
BOULDER MUN AP FAIR      64  50  59 S3        30.24S
CENTENNIAL     FAIR      63  56  78 CALM      30.28S
BROOMFIELD     FAIR      68  52  56 S3        30.27F
FORT COLLINS   FAIR      66  56  70 SE6       30.23R
LONGMONT       FAIR      63  54  72 CALM      30.25R
$$

COZ041-046-047-076>085-087-088-201300-
...PIKES PEAK/PALMER DIVIDE AND SOUTHERN FOOTHILLS...

CITY           SKY/WX    TMP DP  RH WIND       PRES   REMARKS
COLO. SPRINGS  FAIR      67  54  63 NW12      30.29S
A. F. ACADEMY  FAIR      60  51  73 N9        30.31S
SCHRIEVER AFB  FAIR      65  52  60 NW12G20   30.28R
CHEYENNE MTN   NOT AVBL
ELLICOTT       FAIR     N/A N/A N/A N15       30.26R
FALCON           N/A     64  50  60 N15G23    30.33R
FORT CARSON    FAIR      67  53  61 NW12      30.25R
LIMON          FAIR      62  58  86 NW10      30.22R
MONUMENT HILL  FAIR      55  50  82 NW6       30.38S
CANON CITY     PTCLDY    70  55  60 W9        30.22R
WALSENBURG     FAIR      64  50  59 NW5       30.29R
TRINIDAD       FAIR      72  46  39 W17       30.26R
$$

COZ042>045-048>051-090-091-201300-
...NORTHEAST COLORADO...

CITY           SKY/WX    TMP DP  RH WIND       PRES   REMARKS
GREELEY ARPT   FAIR      64  58  80 CALM      30.22R
AKRON          FAIR      65  60  84 N12       30.17R
BURLINGTON     FAIR      65  59  81 NW10      30.10R
WRAY           NOT AVBL
YUMA           FAIR      68  54  60 N12G17    30.11R
STERLING       FAIR      68  63  83 NE6       30.12S
HOLYOKE        FAIR      72  63  73 NE10      30.09R
FORT MORGAN    FAIR      67  58  71 N10       30.19R
$$

COZ086-089-092>099-201300-
...SOUTHEAST COLORADO...

CITY           SKY/WX    TMP DP  RH WIND       PRES   REMARKS
PUEBLO         FAIR      75  53  46 NW15G23   30.17R
LA JUNTA       FAIR      72  55  55 NW12      30.11R
LAMAR          FAIR      67  55  65 S9        30.04R
SPRINGFIELD      N/A     68  58  70 SW12      30.13S
$$



USA.gov is the U.S. government's official web portal to all federal, state and local government web resources and services.